{"data":{"norad_id":62522,"intl_designator":"2025-004M","name":"STARLINK-11516 [DTC]","alt_names":[],"object_type":"PAYLOAD","status":"ACTIVE","operator":null,"country":"US","launch_date":"2025-01-08","launch_site_code":"AFETR","launch_vehicle":null,"mission":null,"orbit_class":"UNKNOWN","rcs_meters":null,"size_class":null,"mass_kg":null,"dimensions":null,"purposes":["comms"],"wikipedia_slug":null,"has_3d_model":false,"image_url":null,"decayed_at":null,"tle_current":{"epoch":"2026-09-21T11:42:04.535136Z","epoch_age_seconds":89175,"freshness":"FRESH","line1":"1 62522U 25004M   26264.48755249  .00050716  00000+0  39618-3 0  9990","line2":"2 62522  43.0006 330.4134 0001154 257.2214 102.8524 15.70849293 98001","mean_motion":15.70849293,"eccentricity":0.0001154,"inclination_deg":43.0006,"raan_deg":330.4134,"arg_perigee_deg":257.2214,"mean_anomaly_deg":102.8524,"bstar":0.00039618,"rev_number":9800,"period_min":91.67015616437,"perigee_km":355.69132709153,"apogee_km":357.24567404106,"semimajor_km":6734.6055005663,"source":"CELESTRAK","updated_at":"2026-09-22T09:00:49.623667Z"}}}